• In Deutschland
  • Länderverzeichnis
  • Für 7 Tage
  • Wassertemperatur
  • Satellitenkarten
  • Wetterkarte
  • Widgets
  • user-avatar
    Anmelden

    Stündliche Wetter Kuiaba

    Heute, 22 August, Mittwoch

    Zeit Temperatur Niederschläge Wind Luftdruck Luftfeuchtigkeit
    00:00 +21°C° 0 mm 2 m/S 745 mmHg 49%
    01:00 +20°C° 0 mm 2 m/S 744 mmHg 50%
    02:00 +20°C° 0 mm 2 m/S 744 mmHg 51%
    03:00 +19°C° 0 mm 2 m/S 744 mmHg 53%
    04:00 +19°C° 0 mm 2 m/S 744 mmHg 54%
    05:00 +18°C° 0 mm 2 m/S 744 mmHg 55%
    06:00 +19°C° 0 mm 2 m/S 744 mmHg 52%
    07:00 +21°C° 0 mm 2 m/S 745 mmHg 49%
    08:00 +23°C° 0 mm 2 m/S 745 mmHg 46%
    09:00 +26°C° 0 mm 2 m/S 745 mmHg 41%
    10:00 +29°C° 0 mm 3 m/S 745 mmHg 35%
    11:00 +33°C° 0 mm 3 m/S 745 mmHg 29%
    12:00 +34°C° 0 mm 2 m/S 744 mmHg 27%
    13:00 +35°C° 0 mm 2 m/S 743 mmHg 26%
    14:00 +37°C° 0 mm 2 m/S 742 mmHg 24%
    15:00 +36°C° 0 mm 2 m/S 741 mmHg 25%
    16:00 +36°C° 0 mm 2 m/S 741 mmHg 26%
    17:00 +35°C° 0 mm 2 m/S 740 mmHg 27%
    18:00 +32°C° 0 mm 2 m/S 741 mmHg 31%
    19:00 +30°C° 0 mm 2 m/S 741 mmHg 35%
    20:00 +28°C° 0 mm 2 m/S 741 mmHg 38%
    21:00 +27°C° 0 mm 2 m/S 741 mmHg 41%
    22:00 +27°C° 0 mm 2 m/S 741 mmHg 43%
    23:00 +26°C° 0 mm 1 m/S 741 mmHg 45%

    Morgen, 23 August, Donnerstag

    Zeit Temperatur Niederschläge Wind Luftdruck Luftfeuchtigkeit
    00:00 +25°C° 0 mm 1 m/S 741 mmHg 47%
    01:00 +25°C° 0 mm 1 m/S 741 mmHg 49%
    02:00 +24°C° 0 mm 1 m/S 740 mmHg 51%
    03:00 +24°C° 0 mm 1 m/S 740 mmHg 52%
    04:00 +24°C° 0 mm 1 m/S 740 mmHg 53%
    05:00 +23°C° 0 mm 1 m/S 740 mmHg 54%
    06:00 +25°C° 0 mm 1 m/S 740 mmHg 49%
    07:00 +27°C° 0 mm 1 m/S 741 mmHg 44%
    08:00 +30°C° 0 mm 1 m/S 741 mmHg 39%
    09:00 +33°C° 0 mm 1 m/S 741 mmHg 33%
    10:00 +36°C° 0 mm 1 m/S 741 mmHg 27%
    11:00 +41°C° 0 mm 1 m/S 741 mmHg 21%
    12:00 +41°C° 0 mm 1 m/S 740 mmHg 20%
    13:00 +41°C° 0 mm 2 m/S 739 mmHg 18%
    14:00 +42°C° 0 mm 2 m/S 738 mmHg 17%
    15:00 +41°C° 0 mm 2 m/S 737 mmHg 18%
    16:00 +40°C° 0 mm 1 m/S 737 mmHg 20%
    17:00 +39°C° 0 mm 1 m/S 737 mmHg 21%
    18:00 +36°C° 0 mm 1 m/S 737 mmHg 23%
    19:00 +35°C° 0 mm 1 m/S 738 mmHg 24%
    20:00 +34°C° 0 mm 1 m/S 738 mmHg 26%
    21:00 +34°C° 0 mm 2 m/S 739 mmHg 27%
    22:00 +34°C° 0 mm 2 m/S 739 mmHg 28%
    23:00 +32°C° 0 mm 2 m/S 739 mmHg 29%

    übermorgen, 24 August, Freitag

    Zeit Temperatur Niederschläge Wind Luftdruck Luftfeuchtigkeit
    00:00 +32°C° 0 mm 2 m/S 739 mmHg 30%
    01:00 +32°C° 0 mm 2 m/S 738 mmHg 31%
    02:00 +31°C° 0 mm 2 m/S 738 mmHg 32%
    03:00 +31°C° 0 mm 2 m/S 738 mmHg 33%
    04:00 +31°C° 0 mm 3 m/S 738 mmHg 34%
    05:00 +31°C° 0 mm 3 m/S 738 mmHg 35%
    06:00 +33°C° 0 mm 3 m/S 739 mmHg 33%
    07:00 +34°C° 0 mm 3 m/S 740 mmHg 32%
    08:00 +35°C° 0 mm 4 m/S 740 mmHg 30%
    09:00 +36°C° 0 mm 4 m/S 740 mmHg 28%
    10:00 +38°C° 0 mm 3 m/S 740 mmHg 26%
    11:00 +39°C° 0 mm 3 m/S 740 mmHg 24%
    12:00 +40°C° 0 mm 3 m/S 739 mmHg 22%
    13:00 +41°C° 0 mm 2 m/S 739 mmHg 21%
    14:00 +42°C° 0 mm 2 m/S 738 mmHg 20%
    15:00 +40°C° 0 mm 2 m/S 738 mmHg 21%
    16:00 +39°C° 0 mm 1 m/S 738 mmHg 23%
    17:00 +37°C° 0 mm 1 m/S 738 mmHg 24%
    18:00 +36°C° 0,2 mm 1 m/S 739 mmHg 28%
    19:00 +35°C° 0,2 mm 1 m/S 740 mmHg 31%
    20:00 +33°C° 0,2 mm 1 m/S 740 mmHg 34%
    21:00 +33°C° 0,1 mm 1 m/S 740 mmHg 36%
    22:00 +32°C° 0,1 mm 1 m/S 741 mmHg 37%
    23:00 +32°C° 0,1 mm 1 m/S 741 mmHg 39%

    25 August, Samstag

    Zeit Temperatur Niederschläge Wind Luftdruck Luftfeuchtigkeit
    00:00 +31°C° 0,1 mm 1 m/S 741 mmHg 42%
    01:00 +30°C° 0,1 mm 1 m/S 740 mmHg 46%
    02:00 +29°C° 0,1 mm 1 m/S 740 mmHg 49%
    03:00 +28°C° 0,7 mm 1 m/S 740 mmHg 54%
    04:00 +28°C° 0,7 mm 2 m/S 741 mmHg 59%
    05:00 +27°C° 0,7 mm 3 m/S 741 mmHg 64%
    06:00 +27°C° 0,4 mm 3 m/S 742 mmHg 67%
    07:00 +27°C° 0,4 mm 3 m/S 743 mmHg 69%
    08:00 +27°C° 0,4 mm 4 m/S 744 mmHg 72%
    09:00 +28°C° 0 mm 4 m/S 744 mmHg 68%
    10:00 +29°C° 0 mm 4 m/S 744 mmHg 64%
    11:00 +30°C° 0 mm 4 m/S 744 mmHg 59%
    12:00 +32°C° 0,1 mm 4 m/S 743 mmHg 57%
    13:00 +32°C° 0,1 mm 4 m/S 743 mmHg 54%
    14:00 +33°C° 0,1 mm 4 m/S 742 mmHg 51%
    15:00 +32°C° 0,1 mm 4 m/S 742 mmHg 55%
    16:00 +30°C° 0,1 mm 4 m/S 742 mmHg 58%
    17:00 +29°C° 0,1 mm 5 m/S 742 mmHg 61%
    18:00 +28°C° 0,1 mm 4 m/S 743 mmHg 65%
    19:00 +27°C° 0,1 mm 4 m/S 743 mmHg 68%
    20:00 +26°C° 0,1 mm 3 m/S 744 mmHg 71%
    21:00 +25°C° 0 mm 3 m/S 744 mmHg 70%
    22:00 +25°C° 0 mm 3 m/S 744 mmHg 70%
    23:00 +25°C° 0 mm 3 m/S 744 mmHg 70%

    26 August, Sonntag

    Zeit Temperatur Niederschläge Wind Luftdruck Luftfeuchtigkeit
    00:00 +24°C° 0 mm 3 m/S 744 mmHg 69%
    01:00 +24°C° 0 mm 3 m/S 744 mmHg 69%
    02:00 +24°C° 0 mm 3 m/S 744 mmHg 69%
    03:00 +22°C° 0 mm 3 m/S 744 mmHg 64%
    04:00 +22°C° 0 mm 3 m/S 744 mmHg 60%
    05:00 +21°C° 0 mm 3 m/S 744 mmHg 55%
    06:00 +22°C° 0 mm 4 m/S 745 mmHg 50%
    07:00 +22°C° 0 mm 4 m/S 745 mmHg 45%
    08:00 +23°C° 0 mm 4 m/S 745 mmHg 40%
    09:00 +26°C° 0 mm 4 m/S 745 mmHg 36%
    10:00 +28°C° 0 mm 4 m/S 745 mmHg 33%
    11:00 +30°C° 0 mm 3 m/S 745 mmHg 29%
    12:00 +31°C° 0 mm 3 m/S 744 mmHg 28%
    13:00 +33°C° 0 mm 3 m/S 743 mmHg 26%
    14:00 +34°C° 0 mm 3 m/S 742 mmHg 25%
    15:00 +34°C° 0 mm 3 m/S 742 mmHg 25%
    16:00 +33°C° 0 mm 3 m/S 742 mmHg 26%
    17:00 +33°C° 0 mm 3 m/S 742 mmHg 26%
    18:00 +30°C° 0 mm 3 m/S 742 mmHg 27%
    19:00 +29°C° 0 mm 3 m/S 743 mmHg 29%
    20:00 +27°C° 0 mm 2 m/S 743 mmHg 30%
    21:00 +26°C° 0 mm 2 m/S 743 mmHg 30%
    22:00 +25°C° 0 mm 2 m/S 743 mmHg 29%
    23:00 +25°C° 0 mm 2 m/S 743 mmHg 28%

    27 August, Montag

    Zeit Temperatur Niederschläge Wind Luftdruck Luftfeuchtigkeit
    00:00 +24°C° 0 mm 2 m/S 742 mmHg 29%
    01:00 +23°C° 0 mm 2 m/S 742 mmHg 29%
    02:00 +23°C° 0 mm 1 m/S 742 mmHg 30%
    03:00 +22°C° 0 mm 1 m/S 742 mmHg 31%
    04:00 +22°C° 0 mm 1 m/S 742 mmHg 31%
    05:00 +21°C° 0 mm 1 m/S 742 mmHg 32%
    06:00 +23°C° 0 mm 1 m/S 742 mmHg 30%
    07:00 +25°C° 0 mm 1 m/S 743 mmHg 28%
    08:00 +26°C° 0 mm 1 m/S 743 mmHg 26%
    09:00 +30°C° 0 mm 1 m/S 743 mmHg 24%
    10:00 +33°C° 0 mm 1 m/S 743 mmHg 22%
    11:00 +37°C° 0 mm 1 m/S 743 mmHg 20%
    12:00 +39°C° 0 mm 1 m/S 742 mmHg 19%
    13:00 +40°C° 0 mm 1 m/S 741 mmHg 19%
    14:00 +41°C° 0 mm 1 m/S 740 mmHg 18%
    15:00 +40°C° 0 mm 1 m/S 740 mmHg 20%
    16:00 +39°C° 0 mm 1 m/S 740 mmHg 21%
    17:00 +37°C° 0 mm 1 m/S 739 mmHg 22%
    18:00 +35°C° 0 mm 1 m/S 740 mmHg 24%
    19:00 +33°C° 0 mm 1 m/S 740 mmHg 26%
    20:00 +31°C° 0 mm 1 m/S 740 mmHg 28%
    21:00 +31°C° 0 mm 1 m/S 741 mmHg 30%
    22:00 +30°C° 0 mm 1 m/S 741 mmHg 31%
    23:00 +30°C° 0 mm 1 m/S 741 mmHg 32%
    Mehr zeigen